User: anonymous   Login
Location: Champaign/Urbana Astronomical Society Observatory
(40.0333°N, 88.2833°W)
Time: 08:32:21
(UTC-05:00)
Language:

SO-50 - Orbit

View from above orbital plane
View from above orbital plane
View from above satellite
View from above satellite

Ground track
Ground track

The orbit data is extracted from the following two-line orbital elements,

1 27607U 02058C   19144.19887178 -.00000044  00000-0  14753-4 0  9998
2 27607  64.5534 127.5365 0082070 261.4036  97.7762 14.75547124883275
Epoch (UTC): 24 May 2019 04:46:22
Eccentricity: 0.0082070
inclination: 64.5534°
perigee height: 586 km
apogee height: 701 km
right ascension of ascending node: 127.5365°
argument of perigee: 261.4036°
revolutions per day: 14.75547124
mean anomaly at epoch: 97.7762°
orbit number at epoch: 88327

The dashed part of the orbit path shows where the satellite is in the earth's shadow,  

DLR